Precipitable_Water
1.97 2.02 2.08 1.84 1.19 1.11 0.90 0.98 1.17 1.03 1.08 1.21 1.21 1.06 1.03 1.24 0.96 0.79 1.58 1.69 1.85 1.89 1.97 1.88 1.86 1.88 1.89 1.85 1.84 1.80 1.75 1.69 1.70 1.68 1.66 1.66 1.65 1.65 1.62 1.62 1.38 1.38 1.37 1.60 1.70 1.68 1.65 1.60 1.51
1.82 1.90 1.81 1.45 1.03 0.90 0.96 1.14 0.99 1.10 1.22 1.26 1.35 1.29 1.12 1.09 1.45 1.40 1.42 1.64 1.80 1.86 1.91 1.85 1.86 1.85 1.84 1.82 1.78 1.71 1.66 1.68 1.71 1.73 1.71 1.71 1.71 1.70 1.69 1.62 1.60 1.58 1.42 1.36 1.48 1.57 1.62 1.62 1.57
1.77 1.79 1.33 1.11 1.03 0.92 0.95 1.15 1.19 1.26 1.29 1.21 1.21 1.43 1.27 1.14 1.51 1.45 1.60 1.64 1.72 1.78 1.86 1.84 1.80 1.77 1.79 1.78 1.70 1.67 1.69 1.67 1.66 1.70 1.72 1.68 1.69 1.62 1.57 1.58 1.58 1.64 1.61 1.67 1.46 1.50 1.52 1.55 1.56
1.54 1.39 1.29 0.92 0.92 1.13 1.14 1.22 1.23 1.19 1.36 1.36 1.25 1.09 1.31 1.49 1.49 1.58 1.65 1.62 1.61 1.71 1.77 1.83 1.75 1.75 1.75 1.77 1.75 1.72 1.68 1.63 1.58 1.58 1.58 1.60 1.58 1.56 1.56 1.63 1.66 1.56 1.50 1.63 1.71 1.54 1.70 1.80 1.63
1.46 1.21 0.85 0.82 0.96 1.11 1.17 1.24 1.27 1.16 1.24 1.21 1.18 0.97 0.99 1.44 1.66 1.63 1.63 1.60 1.52 1.65 1.74 1.82 1.74 1.78 1.75 1.76 1.77 1.79 1.74 1.65 1.60 1.60 1.61 1.60 1.56 1.53 1.52 1.53 1.56 1.62 1.70 1.61 1.51 1.54 1.59 1.71 1.68
0.99 1.07 0.73 0.68 0.78 0.96 1.01 1.22 1.22 1.21 1.24 1.12 1.01 0.90 1.02 1.51 1.51 1.55 1.63 1.56 1.56 1.57 1.67 1.78 1.78 1.80 1.80 1.81 1.84 1.81 1.76 1.73 1.69 1.64 1.59 1.61 1.68 1.72 1.75 1.81 1.76 1.76 1.73 1.73 1.82 1.73 1.54 1.53 1.67
0.93 0.84 0.69 0.75 0.72 0.79 0.96 1.33 1.23 1.20 1.14 1.11 1.19 0.89 1.10 1.33 1.52 1.57 1.60 1.57 1.53 1.60 1.64 1.72 1.75 1.80 1.80 1.81 1.81 1.81 1.77 1.76 1.76 1.75 1.73 1.79 1.78 1.73 1.77 1.74 1.80 1.82 1.79 1.74 1.73 1.73 1.76 1.68 1.58
1.01 0.79 0.64 0.66 0.60 0.64 1.00 1.19 1.40 1.24 1.17 1.31 1.28 0.91 0.90 1.28 1.51 1.58 1.64 1.57 1.53 1.60 1.65 1.69 1.71 1.76 1.77 1.78 1.80 1.81 1.85 1.81 1.81 1.82 1.97 1.96 1.87 1.78 1.76 1.69 1.76 1.82 1.82 1.74 1.66 1.68 1.71 1.72 1.70
1.13 0.71 0.59 0.64 0.68 0.77 0.98 1.02 1.24 1.39 1.26 1.22 1.27 1.21 1.20 1.42 1.47 1.49 1.52 1.52 1.49 1.55 1.64 1.69 1.69 1.73 1.75 1.82 1.88 1.92 1.90 1.95 1.95 2.13 2.10 2.05 1.99 1.95 1.75 1.68 1.68 1.83 1.86 1.85 1.82 1.71 1.68 1.70 1.72
0.89 0.69 0.68 0.85 0.91 0.88 0.96 0.97 1.06 1.13 1.17 1.07 1.12 1.29 1.37 1.42 1.33 1.31 1.31 1.31 1.39 1.44 1.52 1.65 1.70 1.71 1.73 1.76 1.86 1.89 1.91 1.98 2.17 2.09 2.01 2.06 2.03 1.88 1.78 1.74 1.74 1.72 1.85 1.86 1.88 1.86 1.73 1.62 1.67
0.84 0.70 0.86 0.89 0.98 1.03 0.96 0.88 1.07 0.98 0.92 1.01 0.97 1.14 1.28 1.30 1.30 1.26 1.28 1.34 1.42 1.50 1.56 1.63 1.70 1.74 1.74 1.69 1.89 1.96 2.00 2.08 2.13 2.08 2.01 2.03 1.99 1.84 1.80 1.77 1.75 1.69 1.83 1.95 2.01 1.96 1.81 1.63 1.60
0.76 0.84 0.91 1.00 1.09 1.01 0.94 1.00 0.91 1.01 1.04 1.13 1.14 1.23 1.25 1.23 1.33 1.32 1.33 1.43 1.52 1.55 1.63 1.72 1.76 1.76 1.74 1.81 1.94 2.01 2.03 2.09 2.09 2.09 2.08 2.01 1.90 1.80 1.79 1.80 1.79 1.84 1.82 1.92 1.95 1.92 1.90 1.71 1.59
0.84 0.88 0.98 1.08 1.10 1.08 1.06 0.99 0.91 0.90 1.18 1.25 1.23 1.28 1.22 1.24 1.29 1.38 1.42 1.49 1.55 1.56 1.64 1.76 1.83 1.80 1.83 1.88 1.99 1.98 2.01 1.99 1.97 1.98 2.02 2.01 1.81 1.80 1.91 1.86 1.82 1.91 1.86 1.96 1.98 1.99 1.92 1.72 1.58
0.94 0.95 0.99 1.08 1.06 1.06 0.98 0.99 0.98 0.92 1.13 1.16 1.18 1.20 1.26 1.29 1.35 1.39 1.42 1.51 1.59 1.65 1.68 1.78 1.83 1.89 1.95 1.97 2.05 2.00 2.02 2.04 1.99 1.95 1.96 1.97 1.89 1.90 1.87 1.92 1.88 1.94 1.96 2.04 2.03 2.01 2.00 1.93 1.63
0.96 0.83 0.90 0.99 1.02 0.98 1.08 0.87 0.89 0.93 0.98 1.07 1.09 1.13 1.23 1.32 1.38 1.41 1.50 1.53 1.66 1.74 1.81 1.81 1.86 1.93 1.95 1.99 2.06 2.05 2.03 2.05 2.01 1.98 1.98 1.89 1.90 1.93 1.94 1.90 1.88 1.97 2.06 2.05 2.04 2.07 1.98 1.77 1.77
0.85 0.83 0.65 0.91 0.98 1.03 1.01 0.71 1.00 1.07 0.93 0.87 1.01 1.05 1.13 1.20 1.31 1.45 1.53 1.55 1.70 1.79 1.77 1.81 1.85 1.89 1.97 2.00 2.09 2.11 2.12 2.10 2.07 2.04 1.98 1.89 1.93 1.93 1.87 1.81 1.78 2.04 2.08 2.07 2.03 2.03 1.94 1.79 1.79
0.78 0.63 0.64 0.74 0.99 0.96 0.90 0.75 0.99 1.18 1.03 0.93 0.88 0.97 1.07 1.16 1.29 1.43 1.53 1.56 1.64 1.73 1.79 1.74 1.81 1.86 1.95 2.02 2.09 2.12 2.14 2.13 2.11 2.09 1.98 1.94 1.94 1.89 1.79 1.69 1.92 2.03 2.01 2.03 2.02 1.99 1.94 1.80 1.79
0.60 0.62 0.66 0.64 0.81 0.89 0.84 0.79 0.96 1.08 1.10 0.99 0.95 0.95 0.98 1.04 1.15 1.37 1.49 1.59 1.65 1.75 1.79 1.73 1.75 1.80 1.94 1.98 2.05 2.07 2.07 2.11 2.13 2.06 2.00 2.00 2.00 1.97 1.93 1.96 1.98 2.04 2.01 2.00 2.02 1.93 1.87 1.85 1.82
0.64 0.59 0.58 0.65 0.79 0.77 0.74 0.72 0.82 0.99 1.08 1.07 1.03 1.00 1.00 1.08 1.24 1.28 1.35 1.49 1.63 1.63 1.65 1.59 1.65 1.76 1.83 1.86 1.89 1.89 1.86 2.01 2.05 2.11 2.08 2.02 2.03 2.08 2.01 1.92 1.92 1.98 1.94 1.93 1.95 1.94 1.76 1.82 1.85
0.64 0.58 0.57 0.61 0.73 0.72 0.68 0.62 0.78 0.90 0.92 1.04 1.10 1.05 1.04 1.11 1.20 1.27 1.30 1.39 1.48 1.53 1.56 1.55 1.63 1.69 1.75 1.80 1.85 1.93 1.96 2.06 2.08 2.09 2.09 2.12 2.10 2.09 2.05 2.01 1.96 1.99 2.00 1.96 1.98 2.01 1.92 1.88 1.88
0.61 0.59 0.58 0.55 0.64 0.73 0.67 0.54 0.60 0.76 0.90 1.02 1.12 1.16 1.19 1.12 1.16 1.24 1.30 1.39 1.55 1.56 1.52 1.53 1.61 1.66 1.71 1.76 1.86 1.90 1.99 2.03 1.98 2.00 1.99 2.04 2.05 2.00 2.05 2.09 2.16 2.12 2.04 2.00 2.03 2.00 1.94 1.82 1.90
0.56 0.68 0.64 0.59 0.55 0.48 0.69 0.38 0.46 0.59 0.69 0.84 0.94 1.11 1.16 1.16 1.25 1.34 1.38 1.43 1.51 1.60 1.67 1.68 1.69 1.64 1.68 1.78 1.80 1.78 1.77 1.75 1.84 1.87 1.95 1.93 1.92 1.93 1.99 2.03 2.13 2.13 2.16 2.11 2.02 2.02 1.99 1.98 1.79
0.59 0.70 0.62 0.60 0.56 0.56 0.56 0.47 0.45 0.53 0.51 0.62 0.83 0.98 1.16 1.20 1.22 1.30 1.38 1.50 1.61 1.65 1.64 1.72 1.78 1.75 1.72 1.76 1.81 1.79 1.70 1.73 1.80 1.86 1.88 1.84 1.80 1.85 1.91 1.97 2.01 2.00 2.10 2.13 2.12 2.05 1.90 1.93 1.85
0.59 0.56 0.55 0.58 0.51 0.41 0.45 0.49 0.39 0.40 0.48 0.58 0.74 0.93 1.11 1.25 1.33 1.38 1.46 1.52 1.60 1.65 1.63 1.61 1.64 1.71 1.81 1.74 1.72 1.69 1.68 1.80 1.73 1.74 1.74 1.83 1.84 1.86 1.91 1.99 1.81 1.75 1.80 1.85 1.98 2.05 1.99 1.95 1.88
0.56 0.47 0.41 0.37 0.38 0.37 0.44 0.45 0.40 0.46 0.58 0.73 0.78 0.90 1.05 1.21 1.33 1.36 1.39 1.46 1.53 1.54 1.59 1.60 1.58 1.63 1.74 1.71 1.64 1.63 1.67 1.78 1.79 1.77 1.71 1.77 1.80 1.73 1.76 1.90 1.81 1.70 1.64 1.66 1.67 1.77 1.90 1.88 1.84
0.66 0.58 0.41 0.35 0.36 0.37 0.49 0.38 0.40 0.60 0.70 0.83 0.93 0.99 1.03 1.16 1.29 1.38 1.39 1.40 1.47 1.57 1.61 1.67 1.66 1.61 1.68 1.71 1.73 1.78 1.70 1.68 1.74 1.78 1.82 1.83 1.86 1.81 1.75 1.73 1.70 1.63 1.59 1.56 1.47 1.47 1.50 1.58 1.63
0.45 0.56 0.61 0.42 0.41 0.37 0.39 0.43 0.49 0.60 0.63 0.75 0.85 0.94 0.94 1.05 1.21 1.31 1.36 1.43 1.45 1.55 1.62 1.66 1.73 1.76 1.83 1.83 1.79 1.73 1.76 1.75 1.72 1.77 1.85 1.86 1.94 1.98 1.89 1.84 1.76 1.61 1.46 1.49 1.42 1.39 1.38 1.46 1.43
0.44 0.49 0.40 0.45 0.31 0.30 0.34 0.38 0.37 0.45 0.55 0.67 0.74 0.80 0.87 1.00 1.11 1.27 1.36 1.43 1.54 1.64 1.62 1.65 1.68 1.73 1.87 1.91 2.00 1.91 1.82 1.71 1.74 1.74 1.80 1.84 1.97 2.03 1.99 1.98 1.93 1.67 1.44 1.37 1.35 1.28 1.29 1.24 1.26
0.40 0.36 0.35 0.34 0.35 0.31 0.29 0.33 0.49 0.51 0.61 0.63 0.71 0.80 0.86 0.97 1.05 1.15 1.27 1.39 1.47 1.53 1.53 1.59 1.60 1.70 1.79 1.84 2.01 1.90 1.88 1.86 1.78 1.74 1.73 1.82 1.90 2.03 1.75 2.00 1.94 1.58 1.43 1.37 1.37 1.39 1.37 1.29 1.25
0.48 0.40 0.37 0.31 0.33 0.38 0.35 0.31 0.52 0.58 0.66 0.78 0.83 0.90 0.96 1.03 1.10 1.17 1.24 1.33 1.39 1.47 1.52 1.48 1.57 1.66 1.78 1.85 1.92 1.86 1.79 1.82 1.79 1.65 1.74 1.72 1.60 1.86 2.42 2.10 1.89 1.60 1.41 1.37 1.27 1.23 1.24 1.21 1.19
Wind_Speed
5 5 4 3 3 4 5 6 5 8 6 3 8 3 4 4 3 3 13 15 18 17 17 16 15 15 14 14 14 14 13 13 12 11 11 10 10 10 10 9 10 10 9 9 9 9 9 9 10
5 5 5 4 5 3 4 4 6 4 4 7 4 4 3 3 3 7 15 16 17 17 17 16 15 14 14 13 13 13 13 12 11 10 10 10 10 9 9 9 9 9 9 8 8 8 8 8 8
6 5 4 4 4 4 4 3 4 4 4 6 2 2 1 1 4 13 13 17 17 17 16 15 15 14 13 13 13 12 11 10 10 9 8 8 8 8 8 8 7 7 7 7 7 7 6 6 6
6 5 5 5 5 3 3 5 6 5 3 1 3 3 1 2 9 10 17 17 17 16 16 15 14 14 13 13 12 11 10 9 8 7 7 6 6 6 6 5 5 5 5 5 5 5 5 5 5
6 4 5 5 4 3 2 1 1 2 2 2 1 2 3 3 9 15 16 16 16 16 16 15 14 13 12 12 11 9 8 7 6 5 5 5 5 4 4 4 3 3 3 3 3 3 4 4 4
6 5 5 5 4 2 1 2 1 2 4 4 5 5 4 8 14 16 15 15 15 15 15 14 13 12 12 11 10 8 7 6 5 5 4 3 3 2 2 2 1 1 2 2 3 3 4 4 4
6 7 5 4 3 2 2 3 1 3 5 4 5 4 6 9 13 15 14 14 14 14 14 13 12 12 11 10 9 7 6 6 6 5 4 3 2 2 1 1 1 1 2 3 4 4 5 5 5
5 6 6 5 4 4 2 2 3 4 4 7 4 4 6 10 14 14 13 13 13 13 13 12 12 12 11 9 9 7 6 6 6 6 5 4 3 3 2 2 2 2 3 3 4 5 5 6 6
3 5 5 5 5 6 4 3 3 3 6 3 2 4 7 13 14 14 13 12 12 12 12 12 12 11 10 9 9 8 8 7 8 7 6 7 5 4 4 3 3 3 3 4 4 4 5 6 7
2 3 4 4 4 6 4 5 4 3 5 3 5 8 11 13 14 14 13 12 12 12 12 11 11 11 10 10 9 9 9 9 9 8 8 10 8 7 6 5 5 5 5 4 5 5 5 6 7
3 2 3 4 5 6 6 5 2 4 3 3 6 10 11 12 13 13 12 11 10 10 10 10 10 11 10 10 10 9 9 10 10 10 10 12 11 9 7 7 8 8 7 6 6 5 5 6 6
2 2 3 4 5 6 6 6 4 3 2 4 8 11 11 11 12 12 11 10 10 9 9 9 9 9 10 9 10 9 9 8 10 10 11 10 11 11 10 9 8 9 10 8 6 6 6 6 7
2 3 4 4 5 6 7 6 6 3 3 6 9 10 11 11 11 11 10 9 9 8 8 8 8 8 9 8 9 8 7 8 9 10 8 10 11 11 10 9 8 6 6 7 7 7 6 6 7
4 6 6 4 5 5 5 7 7 5 5 7 8 10 11 10 10 10 9 9 8 7 7 6 6 8 7 7 9 7 7 6 7 8 8 8 10 10 10 9 8 5 5 6 6 7 8 7 7
5 5 4 4 3 3 5 5 6 7 6 7 7 9 10 9 9 9 9 8 8 7 6 6 6 7 7 5 6 6 5 5 4 4 6 7 8 9 9 9 9 8 8 8 8 8 7 7 7
3 3 2 2 2 2 2 4 5 6 7 7 7 8 8 9 9 8 8 7 8 7 7 6 6 6 6 6 5 5 6 5 5 5 6 6 7 8 8 9 9 9 9 9 8 7 8 8 8
4 3 3 2 3 1 1 2 2 4 5 5 6 7 7 7 7 7 7 7 7 7 6 6 7 7 7 7 6 6 6 6 6 6 7 7 7 7 8 9 9 9 8 9 9 9 9 8 8
5 4 4 4 5 4 4 4 2 4 3 3 4 5 5 6 7 7 7 7 7 7 7 6 6 8 7 7 7 7 7 8 8 8 7 7 7 8 9 10 11 10 9 10 9 9 9 9 9
4 5 6 5 5 6 6 5 4 5 5 4 4 4 5 4 5 5 6 7 7 7 7 7 7 7 8 8 8 8 8 8 8 9 9 8 9 9 10 11 12 12 12 10 10 10 10 10 9
6 5 5 4 4 7 4 8 6 6 8 7 6 6 6 5 4 5 5 6 6 7 8 8 8 8 8 8 8 8 7 7 7 7 7 7 8 8 10 12 13 13 13 12 11 10 9 9 8
8 7 5 4 3 5 4 6 7 7 9 8 10 9 8 7 6 5 5 6 6 6 7 8 9 9 8 9 8 8 7 6 6 6 6 6 7 8 9 11 14 14 13 13 12 10 9 8 7
7 8 5 4 4 3 5 6 6 6 8 10 11 11 10 10 9 8 7 7 8 8 7 7 8 9 9 9 9 9 8 8 7 5 5 5 6 7 8 10 11 12 10 11 12 12 10 10 9
7 9 6 5 4 4 5 6 6 5 8 11 12 13 13 13 12 10 10 8 8 8 8 8 8 8 9 10 10 10 10 10 9 8 7 5 5 6 6 5 3 4 7 8 10 9 11 10 10
9 7 5 4 5 6 6 8 9 7 5 7 8 12 15 14 14 12 11 10 8 9 9 10 10 10 10 11 11 12 11 11 11 9 9 7 6 6 6 5 3 1 2 3 4 6 8 9 10
7 7 8 6 6 6 5 6 8 7 6 6 8 8 10 13 12 11 10 11 10 9 10 11 12 12 12 13 13 13 14 13 13 12 11 9 8 8 6 6 5 4 3 3 4 4 5 6 8
12 11 9 8 7 5 6 7 6 5 5 7 8 4 3 6 11 12 11 10 10 10 12 13 14 14 14 14 15 16 17 17 17 16 15 14 12 11 10 8 8 7 6 5 4 5 5 7 8
9 13 12 7 7 9 7 8 12 6 5 4 5 3 3 4 6 8 9 10 11 10 12 14 15 16 17 18 18 18 18 18 18 18 17 17 17 15 14 12 11 9 8 7 6 7 8 9 10
11 11 11 11 10 11 9 10 10 8 5 5 5 5 5 5 5 8 10 11 13 13 13 14 15 17 19 20 22 21 20 21 21 20 19 19 20 20 20 15 13 11 9 9 9 9 10 11 13
10 11 9 10 11 10 11 10 10 10 7 7 6 6 5 5 6 8 9 11 12 13 14 14 16 16 18 21 23 23 24 23 24 24 23 22 22 23 26 18 14 12 11 12 13 13 14 15 16
8 8 9 9 9 8 10 11 10 9 6 4 3 4 6 6 7 9 10 10 11 12 13 14 16 18 20 22 24 26 27 32 30 31 31 30 31 23 11 14 14 13 13 15 16 18 19 20 21
Wind_Direction
25 32 33 43 77 99 72 59 74 106 110 99 129 98 114 77 110 102 146 149 150 150 148 147 142 139 137 135 133 131 129 125 120 116 110 107 106 105 106 104 104 105 107 108 109 111 113 112 112
38 54 48 53 76 90 78 53 97 90 112 125 114 97 76 92 102 132 147 153 153 152 150 150 147 144 141 138 135 132 131 126 121 118 112 108 106 106 106 105 107 108 109 109 110 115 116 119 119
52 45 45 60 79 86 83 76 87 83 119 147 93 49 46 72 143 147 152 153 154 154 153 152 150 148 145 142 139 136 134 131 127 121 115 112 109 106 107 109 112 111 113 115 117 121 124 126 129
32 45 62 62 88 94 84 96 100 95 99 114 105 56 53 172 152 158 154 155 156 157 157 155 153 151 150 149 147 144 141 138 134 128 123 119 116 112 111 114 117 121 120 126 129 136 138 132 139
27 43 57 83 75 80 57 114 91 74 78 104 74 62 92 132 150 151 153 157 159 159 160 158 157 156 155 155 155 153 152 150 146 142 136 132 125 119 119 119 126 137 143 151 161 167 171 171 162
39 45 67 73 60 61 86 145 117 77 97 104 97 100 97 131 145 152 155 158 162 163 166 166 166 166 165 165 165 166 168 171 169 165 159 153 150 142 133 132 141 170 192 200 202 204 204 203 201
48 52 62 63 42 69 84 130 125 109 107 95 115 91 125 143 152 154 156 160 164 167 170 172 173 174 175 176 177 181 190 193 192 193 191 190 186 190 187 199 222 228 232 233 230 227 225 222 221
57 53 66 60 57 49 103 101 122 119 78 116 117 121 149 158 154 155 158 162 167 172 175 178 182 183 186 189 193 201 204 206 207 211 216 221 221 230 237 248 260 262 255 247 241 238 237 233 231
65 63 60 61 63 55 107 100 124 102 128 90 69 120 137 151 154 156 157 163 170 178 182 185 189 193 197 203 209 219 223 225 218 226 234 235 235 235 247 252 266 272 265 259 250 248 244 241 237
72 69 65 58 67 57 89 112 124 118 136 80 83 117 132 146 156 161 162 164 171 179 187 192 197 203 209 215 226 230 230 236 235 248 255 244 239 240 245 259 268 274 267 262 260 257 251 247 241
106 83 76 59 65 82 83 87 83 130 173 161 145 143 144 148 159 165 167 169 173 179 189 197 205 212 217 227 230 239 241 248 256 253 263 242 236 238 246 260 267 271 262 264 260 260 261 255 248
115 70 84 74 78 72 82 83 59 140 48 152 155 151 150 156 162 165 169 173 179 183 190 197 207 212 217 227 234 245 241 252 257 255 258 236 231 242 256 258 266 276 257 249 253 260 263 261 253
176 107 81 89 84 71 76 62 47 125 88 127 144 154 157 161 164 168 171 176 179 188 194 201 208 214 223 235 235 230 245 258 264 250 250 235 238 247 248 255 262 282 229 236 255 260 264 263 255
120 119 109 92 92 77 70 60 46 60 111 131 147 163 168 165 165 170 178 182 187 191 196 201 211 215 224 244 223 225 253 264 266 243 240 243 243 243 244 250 245 251 235 243 261 264 262 262 254
138 112 102 98 93 63 79 61 44 74 104 133 148 163 175 180 177 179 183 190 195 200 204 210 216 220 226 244 222 231 243 247 246 241 241 250 249 240 240 235 240 252 247 256 267 263 256 256 255
161 144 152 130 136 82 59 45 61 88 96 123 144 155 170 180 184 188 191 198 203 210 214 219 219 221 223 228 228 240 247 249 250 248 250 254 251 244 235 234 242 255 255 251 259 259 254 259 254
199 209 220 192 203 176 240 40 93 122 105 110 142 161 174 185 191 194 201 205 210 214 221 228 226 225 227 230 238 244 247 250 253 254 253 254 249 242 236 238 245 253 260 253 259 253 255 263 259
206 221 230 232 222 238 235 264 172 183 165 136 133 158 174 191 203 207 219 218 220 226 232 236 234 233 234 234 239 249 254 254 254 250 251 251 249 245 244 247 253 257 260 257 260 257 256 262 264
212 228 251 252 230 229 246 256 238 203 208 204 183 180 194 199 206 215 225 226 233 236 235 235 237 236 236 236 241 250 256 257 257 248 248 250 251 252 253 255 256 258 260 263 261 262 260 262 264
228 219 253 278 226 227 260 257 245 220 226 224 221 225 222 228 238 228 231 227 233 235 240 238 237 236 237 239 243 249 258 254 251 238 242 247 252 256 263 264 263 261 261 260 260 262 263 262 256
220 231 245 267 302 232 271 273 253 251 244 237 241 241 239 238 242 235 231 238 245 245 241 238 234 234 236 238 242 247 244 244 240 235 242 250 254 263 273 277 268 261 260 260 260 259 256 258 257
230 216 219 261 243 264 249 288 276 268 256 246 242 241 240 241 243 246 246 253 246 250 249 244 239 235 234 235 237 237 237 238 235 235 245 254 262 276 289 296 280 256 253 262 254 255 257 259 263
237 226 251 263 226 271 252 275 294 299 275 265 255 247 240 240 241 244 247 254 254 257 252 246 244 241 236 232 233 235 238 242 238 238 244 250 266 282 294 311 328 255 251 265 256 254 252 259 262
231 233 236 244 250 265 291 263 287 285 306 317 296 263 245 242 243 250 254 255 259 260 252 248 246 244 242 240 237 237 239 238 236 239 246 251 264 278 281 273 287 275 270 272 266 252 254 259 265
226 232 235 235 235 272 298 251 285 292 305 316 317 294 257 240 237 246 250 251 252 262 254 251 251 248 247 247 245 242 242 242 242 242 247 254 262 268 263 254 253 255 270 284 271 263 267 268 274
225 237 257 248 257 253 276 268 282 305 317 326 344 319 285 241 237 242 250 249 248 265 259 256 255 250 249 250 249 249 246 245 246 250 254 258 262 258 253 248 247 248 254 272 278 270 275 283 282
226 214 237 236 257 258 265 275 284 291 303 328 349 337 315 279 249 248 263 258 260 270 269 261 262 255 256 255 252 250 248 245 246 249 252 255 258 256 249 245 244 245 249 257 268 275 280 286 288
235 216 228 243 253 261 262 275 272 287 309 315 308 307 304 298 276 268 269 267 266 269 276 268 263 263 262 257 256 250 248 246 246 251 253 255 260 258 246 244 238 240 245 257 269 276 281 285 288
227 228 243 247 255 265 273 271 270 275 296 295 286 290 291 291 295 293 287 274 269 272 276 276 265 268 269 265 259 253 251 252 251 252 253 257 260 265 245 240 235 239 252 262 271 277 281 284 287
224 236 235 247 237 263 278 275 278 277 278 261 262 293 305 294 292 294 290 275 272 274 275 277 274 276 278 273 264 260 257 256 259 257 256 256 262 267 243 227 242 249 261 268 275 279 282 283 285